• In Lithuania
  • List of Countries
  • For 7 days
  • Water Temperature
  • Satellite Maps
  • Weather Map
  • Weather Widgets
  • user-avatar
    Login

    Hourly Weather Pakchongo

    Today, 21 September, Friday

    Time Temperature Precipitation Wind Pressure Humidity
    00:00 +24°C° 0.5 mm 0 mps 727 mmHg 87%
    01:00 +23°C° 0 mm 0 mps 727 mmHg 87%
    02:00 +23°C° 0.8 mm 0 mps 727 mmHg 88%
    03:00 +23°C° 0.8 mm 0 mps 726 mmHg 89%
    04:00 +23°C° 0.8 mm 0 mps 726 mmHg 90%
    05:00 +23°C° 0.4 mm 0 mps 726 mmHg 89%
    06:00 +23°C° 0.4 mm 0 mps 727 mmHg 89%
    07:00 +26°C° 0.4 mm 1 mps 727 mmHg 89%
    08:00 +27°C° 0.1 mm 1 mps 727 mmHg 83%
    09:00 +29°C° 0.1 mm 2 mps 728 mmHg 77%
    10:00 +30°C° 0.1 mm 2 mps 728 mmHg 72%
    11:00 +31°C° 0.1 mm 2 mps 727 mmHg 69%
    12:00 +32°C° 0.1 mm 2 mps 727 mmHg 66%
    13:00 +32°C° 0.1 mm 2 mps 727 mmHg 63%
    14:00 +32°C° 0.1 mm 2 mps 726 mmHg 63%
    15:00 +32°C° 0.1 mm 2 mps 726 mmHg 64%
    16:00 +32°C° 0.1 mm 2 mps 725 mmHg 64%
    17:00 +31°C° 0.1 mm 1 mps 725 mmHg 69%
    18:00 +29°C° 0.1 mm 1 mps 726 mmHg 73%
    19:00 +28°C° 0.1 mm 1 mps 726 mmHg 78%
    20:00 +27°C° 0 mm 1 mps 726 mmHg 79%
    21:00 +27°C° 0 mm 1 mps 727 mmHg 80%
    22:00 +27°C° 0 mm 1 mps 727 mmHg 81%
    23:00 +26°C° 0 mm 1 mps 727 mmHg 82%

    Tomorrow, 22 September, Saturday

    Time Temperature Precipitation Wind Pressure Humidity
    00:00 +24°C° 0 mm 0 mps 727 mmHg 83%
    01:00 +24°C° 0 mm 0 mps 727 mmHg 84%
    02:00 +24°C° 0 mm 0 mps 727 mmHg 85%
    03:00 +23°C° 0 mm 0 mps 727 mmHg 85%
    04:00 +23°C° 0 mm 0 mps 726 mmHg 86%
    05:00 +24°C° 0 mm 0 mps 727 mmHg 85%
    06:00 +24°C° 0 mm 0 mps 727 mmHg 85%
    07:00 +24°C° 0 mm 0 mps 728 mmHg 85%
    08:00 +28°C° 0 mm 1 mps 728 mmHg 79%
    09:00 +29°C° 0 mm 1 mps 728 mmHg 73%
    10:00 +31°C° 0 mm 1 mps 729 mmHg 67%
    11:00 +31°C° 0.2 mm 1 mps 728 mmHg 66%
    12:00 +32°C° 0.2 mm 2 mps 728 mmHg 65%
    13:00 +32°C° 0.2 mm 2 mps 727 mmHg 64%
    14:00 +32°C° 0.8 mm 2 mps 727 mmHg 66%
    15:00 +31°C° 0.8 mm 2 mps 726 mmHg 68%
    16:00 +31°C° 0.8 mm 2 mps 726 mmHg 70%
    17:00 +30°C° 0.6 mm 1 mps 726 mmHg 76%
    18:00 +28°C° 0.6 mm 1 mps 726 mmHg 81%
    19:00 +27°C° 0.6 mm 1 mps 726 mmHg 86%
    20:00 +27°C° 0.4 mm 1 mps 727 mmHg 87%
    21:00 +27°C° 0.4 mm 1 mps 728 mmHg 87%
    22:00 +26°C° 0.4 mm 1 mps 728 mmHg 88%
    23:00 +26°C° 0.2 mm 1 mps 728 mmHg 88%

    Day after tomorrow, 23 September, Sunday

    Time Temperature Precipitation Wind Pressure Humidity
    00:00 +26°C° 0.2 mm 1 mps 728 mmHg 88%
    01:00 +26°C° 0.2 mm 1 mps 728 mmHg 88%
    02:00 +26°C° 0 mm 1 mps 727 mmHg 88%
    03:00 +25°C° 0 mm 1 mps 727 mmHg 88%
    04:00 +23°C° 0 mm 0 mps 727 mmHg 88%
    05:00 +23°C° 0.2 mm 0 mps 727 mmHg 88%
    06:00 +24°C° 0.2 mm 0 mps 728 mmHg 87%
    07:00 +24°C° 0.2 mm 0 mps 728 mmHg 87%
    08:00 +25°C° 0.3 mm 0 mps 729 mmHg 82%
    09:00 +28°C° 0.3 mm 1 mps 729 mmHg 77%
    10:00 +30°C° 0.3 mm 1 mps 730 mmHg 72%
    11:00 +30°C° 0.6 mm 1 mps 729 mmHg 71%
    12:00 +31°C° 0.6 mm 1 mps 729 mmHg 70%
    13:00 +31°C° 0.6 mm 1 mps 728 mmHg 68%
    14:00 +30°C° 2.3 mm 1 mps 728 mmHg 73%
    15:00 +29°C° 2.3 mm 1 mps 727 mmHg 77%
    16:00 +29°C° 2.3 mm 1 mps 726 mmHg 82%
    17:00 +28°C° 0.2 mm 1 mps 726 mmHg 84%
    18:00 +27°C° 0.2 mm 1 mps 727 mmHg 87%
    19:00 +26°C° 0.2 mm 1 mps 727 mmHg 90%
    20:00 +26°C° 0 mm 1 mps 727 mmHg 90%
    21:00 +26°C° 0 mm 1 mps 728 mmHg 91%
    22:00 +26°C° 0 mm 1 mps 728 mmHg 91%
    23:00 +25°C° 0 mm 1 mps 728 mmHg 91%

    24 September, Monday

    Time Temperature Precipitation Wind Pressure Humidity
    00:00 +25°C° 0 mm 1 mps 728 mmHg 91%
    01:00 +25°C° 0 mm 1 mps 727 mmHg 91%
    02:00 +25°C° 0 mm 1 mps 727 mmHg 90%
    03:00 +25°C° 0 mm 1 mps 727 mmHg 90%
    04:00 +25°C° 0 mm 1 mps 726 mmHg 90%
    05:00 +25°C° 0 mm 1 mps 727 mmHg 89%
    06:00 +25°C° 0 mm 1 mps 727 mmHg 88%
    07:00 +24°C° 0 mm 0 mps 728 mmHg 87%
    08:00 +27°C° 0 mm 1 mps 728 mmHg 81%
    09:00 +29°C° 0 mm 1 mps 728 mmHg 74%
    10:00 +30°C° 0 mm 1 mps 729 mmHg 67%
    11:00 +31°C° 0.3 mm 1 mps 728 mmHg 66%
    12:00 +31°C° 0.3 mm 1 mps 727 mmHg 65%
    13:00 +32°C° 0.3 mm 2 mps 727 mmHg 64%
    14:00 +32°C° 1.2 mm 2 mps 726 mmHg 66%
    15:00 +31°C° 1.2 mm 2 mps 726 mmHg 68%
    16:00 +31°C° 1.2 mm 2 mps 725 mmHg 70%
    17:00 +30°C° 0.8 mm 2 mps 725 mmHg 75%
    18:00 +28°C° 0.8 mm 2 mps 725 mmHg 81%
    19:00 +27°C° 0.8 mm 1 mps 726 mmHg 86%
    20:00 +27°C° 0 mm 1 mps 726 mmHg 87%
    21:00 +26°C° 0 mm 1 mps 727 mmHg 88%
    22:00 +26°C° 0 mm 1 mps 727 mmHg 89%
    23:00 +26°C° 0 mm 1 mps 727 mmHg 90%

    25 September, Tuesday

    Time Temperature Precipitation Wind Pressure Humidity
    00:00 +25°C° 0 mm 1 mps 726 mmHg 91%
    01:00 +25°C° 0 mm 1 mps 726 mmHg 92%
    02:00 +25°C° 0 mm 1 mps 726 mmHg 92%
    03:00 +24°C° 0 mm 1 mps 725 mmHg 93%
    04:00 +24°C° 0 mm 1 mps 725 mmHg 93%
    05:00 +25°C° 0 mm 1 mps 725 mmHg 92%
    06:00 +25°C° 0 mm 1 mps 726 mmHg 92%
    07:00 +25°C° 0 mm 1 mps 726 mmHg 91%
    08:00 +27°C° 0.3 mm 2 mps 727 mmHg 85%
    09:00 +28°C° 0.3 mm 2 mps 727 mmHg 80%
    10:00 +30°C° 0.3 mm 2 mps 727 mmHg 74%
    11:00 +31°C° 0.8 mm 2 mps 727 mmHg 73%
    12:00 +31°C° 0.8 mm 2 mps 726 mmHg 71%
    13:00 +32°C° 0.8 mm 2 mps 725 mmHg 70%
    14:00 +31°C° 1.3 mm 2 mps 725 mmHg 72%
    15:00 +31°C° 1.3 mm 2 mps 724 mmHg 73%
    16:00 +31°C° 1.3 mm 2 mps 724 mmHg 75%
    17:00 +29°C° 0.3 mm 2 mps 724 mmHg 79%
    18:00 +28°C° 0.3 mm 2 mps 724 mmHg 82%
    19:00 +27°C° 0.3 mm 1 mps 724 mmHg 86%
    20:00 +27°C° 0.1 mm 1 mps 725 mmHg 87%
    21:00 +26°C° 0.1 mm 1 mps 725 mmHg 87%
    22:00 +26°C° 0.1 mm 1 mps 726 mmHg 88%
    23:00 +26°C° 0 mm 1 mps 725 mmHg 89%

    26 September, Wednesday

    Time Temperature Precipitation Wind Pressure Humidity
    00:00 +26°C° 0 mm 1 mps 725 mmHg 89%
    01:00 +25°C° 0 mm 2 mps 725 mmHg 90%
    02:00 +25°C° 0 mm 2 mps 724 mmHg 90%
    03:00 +25°C° 0 mm 2 mps 724 mmHg 90%
    04:00 +25°C° 0 mm 2 mps 724 mmHg 90%
    05:00 +25°C° 0 mm 1 mps 725 mmHg 90%
    06:00 +25°C° 0 mm 1 mps 725 mmHg 90%
    07:00 +25°C° 0 mm 1 mps 725 mmHg 90%
    08:00 +27°C° 0.4 mm 2 mps 726 mmHg 85%
    09:00 +29°C° 0.4 mm 2 mps 726 mmHg 80%
    10:00 +30°C° 0.4 mm 2 mps 727 mmHg 75%
    11:00 +31°C° 0.7 mm 3 mps 726 mmHg 73%
    12:00 +31°C° 0.7 mm 3 mps 725 mmHg 70%
    13:00 +33°C° 0.7 mm 3 mps 725 mmHg 68%
    14:00 +33°C° 0.5 mm 3 mps 724 mmHg 68%
    15:00 +33°C° 0.5 mm 3 mps 724 mmHg 67%
    16:00 +32°C° 0.5 mm 2 mps 723 mmHg 67%
    17:00 +30°C° 0.1 mm 2 mps 723 mmHg 71%
    18:00 +29°C° 0.1 mm 2 mps 724 mmHg 75%
    19:00 +28°C° 0.1 mm 1 mps 724 mmHg 79%
    20:00 +27°C° 0 mm 1 mps 724 mmHg 81%
    21:00 +27°C° 0 mm 1 mps 725 mmHg 82%
    22:00 +27°C° 0 mm 1 mps 725 mmHg 83%
    23:00 +26°C° 0 mm 1 mps 725 mmHg 85%
    Show more